Simultaneous Nadir Overpasses (SNOs) Predictions

Prediction of SNOs between LANDSAT-8 and NOAA-19 Satellite Orbit:

Table of predicted SNOs for the next 14.0 days since TLE Epoch: 10/19/2014
Index Date (LANDSAT-8) Time (LANDSAT-8) Lat,Lon (LANDSAT-8) SZA (LANDSAT-8 ) Date (NOAA-19) Time (NOAA-19) Lat,Lon (NOAA-19) SZA (NOAA-19 ) Distance(km) Time Diff (sec)
1 10/21/2014 08:36:48 72.38, 50.79 83.04 10/21/2014 08:36:11 72.39, 50.71 83.05 2.85 37
2 10/21/2014 09:26:18 -72.26,-141.79 97.08 10/21/2014 09:27:05 -72.27,-141.78 97.06 1.03 47
3 10/23/2014 13:21:04 72.44, -20.18 83.87 10/23/2014 13:19:54 72.43, -20.26 83.86 3.09 70
4 10/23/2014 14:10:34 -72.32, 147.25 96.24 10/23/2014 14:10:49 -72.34, 147.19 96.22 2.55 15
5 10/25/2014 18:54:50 -72.37, 76.25 95.43 10/25/2014 18:54:32 -72.36, 76.24 95.44 0.60 18
6 10/25/2014 19:44:21 72.06,-116.66 84.26 10/25/2014 19:45:32 72.06,-115.92 84.29 25.17 71
7 10/27/2014 23:39:06 -72.39, 5.24 94.66 10/27/2014 23:38:15 -72.40, 5.28 94.66 1.37 51
8 10/28/2014 00:28:33 72.30, 172.70 85.26 10/28/2014 00:29:18 72.27, 172.76 85.24 3.29 45
9 10/30/2014 04:23:16 -72.72, -65.21 93.58 10/30/2014 04:22:05 -72.78, -66.44 93.55 41.08 71
10 10/30/2014 05:12:48 72.36, 101.75 86.06 10/30/2014 05:13:01 72.34, 101.72 86.04 2.43 13
11 11/01/2014 09:57:04 72.36, 30.68 86.76 11/01/2014 09:56:43 72.37, 30.76 86.78 3.27 21
